When you browse on this site, cookies collect data to enhance your experience and personalize the content and advertising you see.
Visit our Privacy Policy to learn more. By continuing to use the site, you agree to this use of cookies and data.
  • In United Kingdom
  • List of Countries
  • For 7 days
  • Water Temperature
  • Weather Map
  • Weather Widgets
  • user-avatar
    Login

    Hourly Weather Duesseldorf

    Today, 4 June, Thursday

    Time Temperature Precipitation Wind Pressure Humidity
    00:00 +16°C° 0.1 mm 2 mps 746 mmHg 89%
    01:00 +15°C° 0.1 mm 2 mps 745 mmHg 89%
    02:00 +15°C° 0.1 mm 2 mps 745 mmHg 89%
    03:00 +15°C° 0.1 mm 2 mps 745 mmHg 89%
    04:00 +15°C° 0.7 mm 2 mps 744 mmHg 89%
    05:00 +15°C° 0.7 mm 2 mps 744 mmHg 88%
    06:00 +14°C° 0.7 mm 3 mps 744 mmHg 88%
    07:00 +14°C° 0.2 mm 3 mps 744 mmHg 86%
    08:00 +16°C° 0.2 mm 3 mps 744 mmHg 85%
    09:00 +16°C° 0.2 mm 3 mps 743 mmHg 84%
    10:00 +15°C° 0.6 mm 4 mps 743 mmHg 82%
    11:00 +15°C° 0.6 mm 5 mps 743 mmHg 81%
    12:00 +15°C° 0.6 mm 6 mps 743 mmHg 80%
    13:00 +15°C° 0.2 mm 5 mps 743 mmHg 77%
    14:00 +15°C° 0.2 mm 4 mps 743 mmHg 75%
    15:00 +15°C° 0.2 mm 4 mps 743 mmHg 73%
    16:00 +14°C° 0.2 mm 3 mps 743 mmHg 75%
    17:00 +13°C° 0.2 mm 3 mps 743 mmHg 78%
    18:00 +12°C° 0.2 mm 3 mps 744 mmHg 80%
    19:00 +12°C° 0.2 mm 3 mps 744 mmHg 82%
    20:00 +12°C° 0.2 mm 3 mps 744 mmHg 83%
    21:00 +11°C° 0.2 mm 3 mps 745 mmHg 85%
    22:00 +11°C° 0.1 mm 3 mps 745 mmHg 85%
    23:00 +10°C° 0.1 mm 3 mps 745 mmHg 85%

    Tomorrow, 5 June, Friday

    Time Temperature Precipitation Wind Pressure Humidity
    00:00 +10°C° 0.1 mm 2 mps 745 mmHg 85%
    01:00 +10°C° 0.1 mm 2 mps 745 mmHg 85%
    02:00 +9°C° 0.1 mm 3 mps 745 mmHg 85%
    03:00 +9°C° 0.1 mm 3 mps 745 mmHg 85%
    04:00 +9°C° 0 mm 3 mps 745 mmHg 82%
    05:00 +10°C° 0 mm 3 mps 745 mmHg 80%
    06:00 +11°C° 0 mm 3 mps 745 mmHg 77%
    07:00 +11°C° 0.2 mm 4 mps 744 mmHg 77%
    08:00 +12°C° 0.2 mm 5 mps 743 mmHg 76%
    09:00 +12°C° 0.2 mm 5 mps 743 mmHg 76%
    10:00 +11°C° 1.1 mm 6 mps 743 mmHg 78%
    11:00 +11°C° 1.1 mm 6 mps 742 mmHg 81%
    12:00 +11°C° 1.1 mm 6 mps 742 mmHg 83%
    13:00 +11°C° 1 mm 6 mps 742 mmHg 79%
    14:00 +11°C° 1 mm 6 mps 742 mmHg 76%
    15:00 +13°C° 1 mm 6 mps 742 mmHg 72%
    16:00 +11°C° 0.4 mm 6 mps 742 mmHg 73%
    17:00 +12°C° 0.4 mm 5 mps 743 mmHg 74%
    18:00 +12°C° 0.4 mm 5 mps 743 mmHg 75%
    19:00 +11°C° 0.1 mm 4 mps 744 mmHg 78%
    20:00 +10°C° 0.1 mm 4 mps 744 mmHg 81%
    21:00 +9°C° 0.1 mm 3 mps 744 mmHg 83%
    22:00 +9°C° 0 mm 3 mps 744 mmHg 84%
    23:00 +8°C° 0 mm 4 mps 744 mmHg 84%

    Day after tomorrow, 6 June, Saturday

    Time Temperature Precipitation Wind Pressure Humidity
    00:00 +8°C° 0 mm 4 mps 744 mmHg 85%
    01:00 +7°C° 0.1 mm 4 mps 745 mmHg 85%
    02:00 +7°C° 0.1 mm 4 mps 745 mmHg 86%
    03:00 +7°C° 0.1 mm 5 mps 745 mmHg 86%
    04:00 +8°C° 0.1 mm 5 mps 746 mmHg 84%
    05:00 +9°C° 0.1 mm 5 mps 746 mmHg 81%
    06:00 +9°C° 0.1 mm 5 mps 746 mmHg 79%
    07:00 +10°C° 0.2 mm 6 mps 746 mmHg 71%
    08:00 +13°C° 0.2 mm 6 mps 746 mmHg 62%
    09:00 +14°C° 0.2 mm 7 mps 747 mmHg 54%
    10:00 +15°C° 0.2 mm 7 mps 747 mmHg 53%
    11:00 +15°C° 0.2 mm 7 mps 747 mmHg 51%
    12:00 +16°C° 0.2 mm 7 mps 747 mmHg 50%
    13:00 +16°C° 0.1 mm 7 mps 747 mmHg 48%
    14:00 +17°C° 0.1 mm 7 mps 747 mmHg 47%
    15:00 +17°C° 0.1 mm 7 mps 747 mmHg 45%
    16:00 +16°C° 0.1 mm 7 mps 747 mmHg 48%
    17:00 +15°C° 0.1 mm 6 mps 747 mmHg 50%
    18:00 +14°C° 0.1 mm 6 mps 748 mmHg 53%
    19:00 +13°C° 0 mm 6 mps 748 mmHg 55%
    20:00 +12°C° 0 mm 5 mps 749 mmHg 57%
    21:00 +10°C° 0 mm 5 mps 749 mmHg 59%
    22:00 +9°C° 0 mm 5 mps 749 mmHg 60%
    23:00 +9°C° 0 mm 5 mps 749 mmHg 62%

    7 June, Sunday

    Time Temperature Precipitation Wind Pressure Humidity
    00:00 +9°C° 0 mm 5 mps 749 mmHg 63%
    01:00 +9°C° 0 mm 5 mps 749 mmHg 65%
    02:00 +9°C° 0 mm 5 mps 750 mmHg 67%
    03:00 +9°C° 0 mm 5 mps 750 mmHg 69%
    04:00 +9°C° 0 mm 5 mps 750 mmHg 70%
    05:00 +9°C° 0 mm 6 mps 750 mmHg 71%
    06:00 +10°C° 0 mm 6 mps 750 mmHg 72%
    07:00 +11°C° 0 mm 6 mps 751 mmHg 69%
    08:00 +13°C° 0 mm 6 mps 751 mmHg 65%
    09:00 +14°C° 0 mm 7 mps 751 mmHg 62%
    10:00 +15°C° 0.2 mm 6 mps 752 mmHg 59%
    11:00 +16°C° 0.2 mm 6 mps 752 mmHg 56%
    12:00 +17°C° 0.2 mm 6 mps 752 mmHg 53%
    13:00 +19°C° 0.2 mm 5 mps 752 mmHg 52%
    14:00 +19°C° 0.2 mm 5 mps 752 mmHg 51%
    15:00 +20°C° 0.2 mm 4 mps 753 mmHg 49%
    16:00 +19°C° 0.1 mm 3 mps 753 mmHg 53%
    17:00 +19°C° 0.1 mm 3 mps 753 mmHg 56%
    18:00 +18°C° 0.1 mm 2 mps 754 mmHg 59%
    19:00 +18°C° 0 mm 1 mps 754 mmHg 64%
    20:00 +15°C° 0 mm 1 mps 755 mmHg 70%
    21:00 +12°C° 0 mm 0 mps 755 mmHg 75%
    22:00 +13°C° 0 mm 1 mps 756 mmHg 76%
    23:00 +13°C° 0 mm 1 mps 756 mmHg 78%

    8 June, Monday

    Time Temperature Precipitation Wind Pressure Humidity
    00:00 +12°C° 0 mm 1 mps 756 mmHg 79%
    01:00 +12°C° 0 mm 1 mps 756 mmHg 81%
    02:00 +12°C° 0 mm 1 mps 756 mmHg 83%
    03:00 +11°C° 0 mm 1 mps 756 mmHg 84%
    04:00 +12°C° 0 mm 1 mps 756 mmHg 81%
    05:00 +13°C° 0 mm 2 mps 756 mmHg 78%
    06:00 +14°C° 0 mm 2 mps 756 mmHg 75%
    07:00 +16°C° 0 mm 2 mps 757 mmHg 69%
    08:00 +17°C° 0 mm 2 mps 757 mmHg 63%
    09:00 +19°C° 0 mm 3 mps 757 mmHg 56%
    10:00 +20°C° 0.1 mm 3 mps 757 mmHg 52%
    11:00 +21°C° 0.1 mm 3 mps 757 mmHg 49%
    12:00 +22°C° 0.1 mm 3 mps 757 mmHg 45%
    13:00 +21°C° 0.6 mm 4 mps 757 mmHg 49%
    14:00 +21°C° 0.6 mm 4 mps 756 mmHg 54%
    15:00 +21°C° 0.6 mm 4 mps 756 mmHg 59%
    16:00 +20°C° 0.5 mm 4 mps 757 mmHg 64%
    17:00 +19°C° 0.5 mm 4 mps 757 mmHg 68%
    18:00 +17°C° 0.5 mm 4 mps 757 mmHg 73%
    19:00 +15°C° 0 mm 4 mps 758 mmHg 77%
    20:00 +14°C° 0 mm 3 mps 758 mmHg 80%
    21:00 +13°C° 0 mm 3 mps 759 mmHg 83%
    22:00 +12°C° 0 mm 3 mps 759 mmHg 83%
    23:00 +12°C° 0 mm 3 mps 760 mmHg 82%

    9 June, Tuesday

    Time Temperature Precipitation Wind Pressure Humidity
    00:00 +13°C° 0 mm 2 mps 760 mmHg 81%
    01:00 +12°C° 0 mm 2 mps 760 mmHg 82%
    02:00 +12°C° 0 mm 2 mps 760 mmHg 82%
    03:00 +12°C° 0 mm 2 mps 760 mmHg 82%
    04:00 +12°C° 0 mm 2 mps 760 mmHg 79%
    05:00 +13°C° 0 mm 2 mps 760 mmHg 75%
    06:00 +13°C° 0 mm 1 mps 761 mmHg 72%
    07:00 +14°C° 0 mm 2 mps 761 mmHg 67%
    08:00 +15°C° 0 mm 2 mps 761 mmHg 63%
    09:00 +16°C° 0 mm 2 mps 761 mmHg 58%
    10:00 +16°C° 0 mm 2 mps 761 mmHg 58%
    11:00 +16°C° 0 mm 2 mps 761 mmHg 58%
    12:00 +17°C° 0 mm 2 mps 761 mmHg 57%
    13:00 +17°C° 0 mm 2 mps 761 mmHg 57%
    14:00 +17°C° 0 mm 2 mps 760 mmHg 56%
    15:00 +17°C° 0 mm 2 mps 760 mmHg 55%
    16:00 +17°C° 0 mm 2 mps 760 mmHg 57%
    17:00 +16°C° 0 mm 2 mps 760 mmHg 60%
    18:00 +16°C° 0 mm 2 mps 761 mmHg 62%
    19:00 +15°C° 0 mm 2 mps 761 mmHg 65%
    20:00 +14°C° 0 mm 2 mps 761 mmHg 68%
    21:00 +13°C° 0 mm 2 mps 762 mmHg 70%
    22:00 +12°C° 0 mm 2 mps 761 mmHg 74%
    23:00 +11°C° 0 mm 1 mps 761 mmHg 78%
    Show more